Tracking 18186 objects as of 29-March-2017
HD Live streaming from Space Station
objects crossing your sky now

COSMOS 1174

Track COSMOS 1174 now!
10-day predictions
COSMOS 1174 is classified as:


NORAD ID: 11765
Int'l Code: 1980-030A
Perigee: 376.0 km
Apogee: 1,167.4 km
Inclination: 66.1 °
Period: 100.1 minutes
Semi major axis: 7142 km
RCS: 4.5129 m2 (large)
Launch date: April 18, 1980
Source: Commonwealth of Independent States (former USSR) (CIS)
Launch site: TYURATAM MISSILE AND SPACE COMPLEX (TTMTR)
Your satellite tracking list
Your tracking list is empty





NASA's NSSDC Master Catalog

Two Line Element Set (TLE):
1 11765U 80030A   17087.91722293 +.00000989 +00000-0 +59290-4 0  9994
2 11765 066.0858 150.5864 0553994 000.5240 359.6320 14.38173644892772
Source of the keplerian elements: AFSPC